Terminal Aerodrome Forecast
Issued by NWS

Home | Current Version | Previous Version | Text Only | Print | Product List | Glossary On
Versions: 1 2 3 4 5 6 7 8 9 10 11 12 13 14 15 16 17 18 19 20 21 22 23 24 25 26 27 28 29 30 31 32
000
FTUS43 KDDC 230900 AAA
TAFHYS
TAF AMD
KHYS 230937Z 2310/2406 07008KT P6SM SCT013
     FM231030 08008KT 4SM BR BKN013
     FM231300 09008KT P6SM SCT080
     FM231900 12011KT P6SM SCT120=

USA.gov is the U.S. government's official web portal to all federal, state and local government web resources and services.